Lid_Strength_Index
0 0 0 0 0 0 0 0 -0 -0 -0 -0 -0 -1 -1 -1 -0 3 6 4 3 -0 1 6 7 8 7 8 9 11 14 16 15 14 12 11 11 11 11 10 11 10 10 9 8
0 0 1 1 1 0 0 0 0 0 -0 -0 -0 -0 -1 -1 3 5 1 -1 -1 -0 6 8 9 9 10 10 10 12 15 14 13 13 13 11 12 10 11 11 12 11 10 9 8
-0 0 0 1 1 0 0 0 0 -0 -0 -0 -0 -1 -1 1 7 7 -1 -2 -2 1 6 7 8 9 11 11 11 13 14 13 12 11 11 11 12 11 12 13 11 11 10 9 8
-0 0 0 0 0 0 0 0 -0 -0 -0 -0 -0 -1 -0 4 13 5 -1 -1 -1 4 6 8 9 11 12 13 11 13 12 12 10 10 11 12 11 12 12 11 10 10 9 9 8
-1 -0 -0 0 0 -0 -0 -0 -0 -0 -0 -0 -0 -1 4 10 8 4 -0 1 5 6 8 9 11 11 13 12 12 12 12 11 11 10 11 11 11 11 11 11 11 10 10 10 9
-1 -1 -0 -0 -0 -0 -0 -0 -0 -0 -0 -0 -1 -0 6 12 4 4 4 5 6 7 9 9 10 10 12 12 13 12 11 11 10 11 11 11 12 11 11 11 11 10 11 11 10
-1 -1 -1 -0 -1 -0 -0 -0 -0 -0 -0 -0 -1 2 8 9 4 4 5 7 6 7 8 8 9 10 11 12 11 11 12 11 11 11 11 11 12 12 11 11 11 11 11 11 11
-0 -1 -1 -1 -1 -1 -1 -1 -1 -0 -1 -1 -1 5 9 5 4 5 5 6 6 6 7 7 8 9 10 10 11 13 13 15 12 11 12 11 14 11 11 12 12 12 13 12 12
1 1 0 -0 -0 -1 -1 -1 -1 -1 -1 -1 4 7 9 3 5 4 6 7 7 7 7 6 8 11 11 13 14 14 17 16 13 11 12 13 13 12 12 12 12 13 13 13 13
1 1 1 1 1 1 -0 -1 -1 -0 0 1 3 8 7 7 6 4 6 6 8 9 9 9 11 13 14 14 17 16 16 15 15 13 13 14 13 12 12 13 13 13 14 13 13
1 1 1 1 1 1 2 3 6 6 5 7 7 8 7 6 5 6 6 7 8 9 12 12 13 14 13 13 13 14 15 15 14 12 13 13 13 11 12 13 13 13 14 13 13
1 1 0 0 0 0 3 5 5 6 8 5 5 6 5 6 8 7 6 9 10 12 11 13 15 11 11 12 13 13 15 15 13 12 13 13 14 13 13 13 12 11 12 13 14
2 2 1 0 0 1 3 3 4 4 8 7 6 6 5 7 8 8 7 8 11 12 12 13 12 10 11 13 13 14 15 15 14 13 14 15 15 14 13 13 12 12 11 12 13
3 3 2 0 2 2 3 1 1 3 12 11 8 7 8 7 9 6 6 8 10 11 12 12 11 11 12 13 12 15 12 13 13 15 17 15 18 16 14 13 13 12 12 13 14
4 3 3 2 3 4 2 1 1 3 20 9 8 5 7 8 8 9 7 8 11 11 11 13 12 12 13 12 11 13 12 13 14 16 18 18 19 17 15 15 12 13 13 14 13
4 3 4 3 2 2 1 2 3 13 19 12 10 11 10 10 11 10 9 8 9 11 12 12 12 11 11 12 11 12 13 14 16 17 19 17 17 17 16 14 13 13 13 13 15
3 4 4 4 5 1 1 4 13 18 10 13 12 11 12 12 13 12 12 12 13 15 14 14 13 12 11 13 13 14 15 19 20 21 19 18 18 14 14 13 13 13 14 15 15
2 3 4 4 3 1 3 9 17 13 13 9 11 11 13 12 13 13 14 15 13 14 15 15 16 13 12 13 14 15 15 18 22 22 20 18 19 16 14 13 13 14 15 15 15
2 5 4 2 2 1 6 14 15 13 11 11 10 13 13 12 12 14 15 15 13 13 14 16 16 14 13 13 12 15 17 14 18 24 22 19 17 14 13 13 13 15 16 16 16
6 7 6 1 0 3 9 13 12 9 9 10 14 12 15 13 13 14 14 13 13 12 12 13 17 15 14 13 14 14 13 17 18 23 24 20 19 16 15 14 13 14 16 17 17
7 9 6 0 0 6 13 13 10 7 7 10 12 13 13 13 12 14 13 12 12 12 10 12 14 16 15 16 15 15 16 16 15 18 22 22 19 15 14 14 13 13 14 17 17
7 11 4 0 8 8 12 11 8 9 7 8 9 10 12 11 13 13 13 11 10 11 13 11 13 17 16 14 13 15 15 15 16 19 17 19 17 14 14 14 14 13 14 17 17
9 8 4 2 12 11 11 10 9 10 9 10 10 9 9 11 14 12 12 10 9 10 12 11 14 18 16 14 14 14 15 13 14 16 18 20 16 15 15 14 14 14 15 17 18
10 13 9 6 6 9 10 10 11 8 9 8 9 9 10 12 10 12 12 9 9 9 8 9 13 15 18 15 14 15 15 14 13 17 16 16 14 14 14 14 13 14 15 17 17
10 12 10 12 11 9 9 10 11 11 8 8 9 10 10 12 12 13 11 10 9 9 9 10 15 15 14 14 14 13 13 14 14 13 15 13 14 12 11 12 11 12 14 16 17
9 12 10 11 10 9 10 11 10 10 10 11 11 10 9 12 11 13 11 11 12 10 10 10 15 13 15 14 14 15 14 13 13 13 13 12 13 9 10 11 12 12 13 15 16
6 7 8 11 14 13 12 10 10 9 8 8 9 10 11 10 9 9 8 8 9 10 11 12 14 15 17 13 14 17 14 14 14 13 12 14 12 9 10 11 9 9 12 13 14